Tracking 22879 objects as of 21-Apr-2021
HD Live streaming from Space Station
objects crossing your sky now

COSMOS 2354

Track COSMOS 2354 now!
10-day predictions
COSMOS 2354 is classified as:


NORAD ID: 25365
Int'l Code: 1998-036C
Perigee: 1,315.6 km
Apogee: 1,876.4 km
Inclination: 82.6 °
Period: 118.0 minutes
Semi major axis: 7967 km
RCS: 0.9905 m2 (medium)
Launch date: June 15, 1998
Source: Commonwealth of Independent States (former USSR) (CIS)
Launch site: PLESETSK MISSILE AND SPACE COMPLEX (PKMTR)

Satellites have a single simultaneous earth-space and space-earth channel.
aabbcc
Your satellite tracking list
Your tracking list is empty




NASA's NSSDC Master Catalog

Two Line Element Set (TLE):
1 25365U 98036C   21110.93692132 -.00000017  00000-0 -19487-3 0  9999
2 25365  82.5884  21.0335 0351939 234.2438 178.2112 12.20841271 18265
Source of the keplerian elements: AFSPC